TimeMDT,TemperatureF,Dew PointF,Humidity,Sea Level PressureIn,VisibilityMPH,Wind Direction,Wind SpeedMPH,Gust SpeedMPH,PrecipitationIn,Events,Conditions,WindDirDegrees,DateUTC
12:53 AM,73.9,30.0,20,29.79,10.0,South,12.7,-,N/A,,Clear,180,2013-07-20 06:53:00
1:53 AM,73.0,28.9,20,29.79,10.0,South,13.8,-,N/A,,Clear,190,2013-07-20 07:53:00
2:53 AM,75.9,27.0,16,29.78,10.0,SSW,15.0,-,N/A,,Clear,200,2013-07-20 08:53:00
3:53 AM,75.0,25.0,16,29.78,10.0,SSW,13.8,-,N/A,,Clear,200,2013-07-20 09:53:00
4:53 AM,73.0,28.0,19,29.79,10.0,SSW,11.5,-,N/A,,Clear,200,2013-07-20 10:53:00
5:53 AM,66.0,30.9,27,29.81,10.0,South,11.5,-,N/A,,Clear,190,2013-07-20 11:53:00
6:53 AM,66.9,34.0,30,29.83,10.0,South,11.5,-,N/A,,Clear,190,2013-07-20 12:53:00
7:53 AM,73.0,35.1,25,29.84,10.0,SSW,9.2,-,N/A,,Clear,200,2013-07-20 13:53:00
8:53 AM,80.1,35.1,20,29.85,10.0,SW,8.1,-,N/A,,Clear,220,2013-07-20 14:53:00
9:53 AM,84.0,41.0,22,29.84,10.0,WNW,9.2,-,N/A,,Clear,290,2013-07-20 15:53:00
10:53 AM,87.1,41.0,20,29.83,10.0,West,9.2,-,N/A,,Clear,280,2013-07-20 16:53:00
11:53 AM,89.1,41.0,19,29.83,10.0,WNW,9.2,-,N/A,,Clear,290,2013-07-20 17:53:00
12:53 PM,90.0,41.0,18,29.81,10.0,NW,8.1,-,N/A,,Clear,320,2013-07-20 18:53:00
1:53 PM,93.9,39.9,15,29.79,10.0,WNW,8.1,-,N/A,,Clear,300,2013-07-20 19:53:00
2:53 PM,93.9,44.1,18,29.77,10.0,NW,6.9,-,N/A,,Clear,310,2013-07-20 20:53:00
3:53 PM,97.0,35.1,11,29.74,10.0,NW,6.9,-,N/A,,Clear,320,2013-07-20 21:53:00
4:53 PM,97.0,36.0,12,29.73,10.0,NW,8.1,-,N/A,,Clear,320,2013-07-20 22:53:00
5:53 PM,97.0,32.0,10,29.71,10.0,NW,5.8,-,N/A,,Clear,320,2013-07-20 23:53:00
6:53 PM,96.1,39.0,14,29.69,10.0,NW,4.6,-,N/A,,Clear,310,2013-07-21 00:53:00
7:53 PM,95.0,33.1,11,29.68,10.0,West,3.5,-,N/A,,Clear,280,2013-07-21 01:53:00
8:53 PM,89.1,37.0,16,29.68,10.0,WSW,6.9,-,N/A,,Clear,240,2013-07-21 02:53:00
9:53 PM,81.0,34.0,18,29.70,10.0,WSW,11.5,-,N/A,,Clear,250,2013-07-21 03:53:00
10:53 PM,84.0,28.0,13,29.70,10.0,WSW,12.7,-,N/A,,Clear,250,2013-07-21 04:53:00
11:53 PM,78.1,28.0,16,29.70,10.0,SW,11.5,-,N/A,,Clear,220,2013-07-21 05:53:00